Flag for India Weather past 2 weeks in Dharamshala, Himachal Pradesh, India

Now
73 °F

Fog.


Feels Like: 68 °F
Forecast: 55 / 80 °F
Wind: No wind

Location: Amritsar Airport

Current Time: Sep 16, 2014 at 6:36:58 AM

Latest Report: Sep 16, 2014 at 5:30 AM


Visibility: 1 mi

Pressure: 29.65 "Hg

Humidity: 100%

Dew point: 73 °F

Location of DharamshalaLocation

Historic Weather in Dharamshala — Graph

°F

Dharamshala temperature yesterday

Maximum temperature yesterday: 93 °F (at 3:30 PM)
Minimum temperature yesterday: 75 °F (at 1:00 AM)
Average temperature yesterday: 82 °F

Past Weeks' High & Low Weather Summary

 TemperatureHumidityPressure
High93 °F (Sep 11, 3:00 PM)100% (Sep 1, 4:30 AM)29.80 "Hg (Sep 1, 4:30 AM)
Low73 °F (Sep 3, 6:30 PM)49% (Sep 15, 3:30 PM)29.42 "Hg (Sep 5, 8:00 PM)
Average80 °F89%29.67 "Hg
* Reported Sep 1 4:30 AM — Sep 16 5:00 AM, Dharamshala, Weather by CustomWeather, © 2014

Note: Actual official high and low records may vary slightly from our data, if they occured in-between our weather recording intervals... More about our weather records

Advertising

Dharamshala weather history for previous 24 hours

 ConditionsComfort  
Time TempWeatherWind HumidityBarometerVisibility
5:00 AM
Sep 16
73 °FFog.No wind100%29.65 "Hg1 mi
4:30 AM75 °FFog.No wind100%29.65 "Hg1 mi
4:00 AM75 °FFog.No wind100%29.65 "Hg1 mi
3:30 AM77 °FFog.No wind94%29.65 "Hg1 mi
3:00 AM77 °FFog.No wind94%29.65 "Hg1 mi
2:30 AM77 °FFog.No wind94%29.65 "Hg1 mi
2:00 AM77 °FFog.No wind100%29.65 "Hg1 mi
1:30 AM79 °FFog.No wind94%29.65 "Hg2 mi
1:00 AM79 °FFog.No wind94%29.65 "Hg2 mi
12:30 AM81 °FFog.No wind84%29.65 "Hg2 mi
12:00 AM81 °FFog.No wind84%29.65 "Hg2 mi
11:30 PM
Sep 15
81 °FFog.No wind84%29.65 "Hg2 mi
11:00 PM81 °FFog.No wind84%29.65 "Hg2 mi
10:30 PM81 °FFog.No wind84%29.65 "Hg2 mi
10:00 PM82 °FFog.No wind79%29.65 "Hg2 mi
9:30 PM82 °FFog.No wind79%29.65 "Hg2 mi
9:00 PMN/AFog.No windN/A29.65 "Hg2 mi
8:30 PM82 °FFog.No wind79%29.65 "Hg3 mi
8:00 PM84 °FFog.No wind74%29.65 "Hg3 mi
7:00 PM86 °FHaze.2 mph70%29.65 "Hg3 mi
6:00 PM90 °FClear.5 mph63%29.65 "Hg4 mi
5:30 PM90 °FClear.6 mph59%29.65 "Hg4 mi
5:00 PM93 °FClear.6 mph49%29.68 "Hg4 mi
4:30 PM93 °FClear.6 mph49%29.68 "Hg4 mi
4:00 PM93 °FClear.7 mph49%29.68 "Hg4 mi
3:30 PM93 °FClear.7 mph49%29.68 "Hg4 mi
3:00 PM91 °FClear.5 mph52%29.71 "Hg4 mi
2:30 PM90 °FClear.6 mph55%29.71 "Hg4 mi
1:00 PM88 °FClear.5 mph70%29.74 "Hg4 mi
12:30 PM88 °FClear.6 mph66%29.74 "Hg4 mi
12:00 PM88 °FClear.5 mph66%29.77 "Hg4 mi
11:30 AM86 °FClear.2 mph70%29.77 "Hg4 mi
11:00 AM88 °FClear.5 mph59%29.77 "Hg4 mi
10:30 AM86 °FClear.3 mph66%29.77 "Hg4 mi
10:00 AM84 °FClear.5 mph70%29.77 "Hg4 mi
9:30 AM82 °FFog.3 mph70%29.80 "Hg3 mi
9:00 AM81 °FFog.5 mph79%29.77 "Hg3 mi
8:00 AM77 °FFog.5 mph94%29.74 "Hg2 mi
7:30 AM77 °FFog.5 mph94%29.74 "Hg2 mi
6:30 AM75 °FFog.No wind100%29.74 "Hg2 mi
Weather by CustomWeather, © 2014

See weather overviewHow to use our weather pages